Location: Rounton
(54.4000°N, 1.3500°W)
Time: 09:18:02
(UTC+01:00)

A-11 Canister half - Pass Details

Date: 01 July 2022
Orbit: 1525 x 1683 km, 47.3° (Epoch: 10 August)

Event Time Altitude Azimuth Distance (km) Brightness Sun altitude
Rises 00:50:40 0° 284° (WNW) 4,694 11.8 -12.4°
Reaches altitude 10° 00:54:42 10° 269° (W) 3,699 11.0 -12.4°
Maximum altitude 01:00:56 21° 226° (SW) 2,944 10.1 -12.5°
Enters shadow 01:05:26 14° 192° (SSW) 3,357 10.2 -12.5°
